Location: Coupvray
(48.8929°N, 2.7967°E)
Time: 04:00:36
(UTC+00:00)

Meteor 2-4 Rocket - Pass Details

Date: 14 July 2020
Orbit: 800 x 908 km, 81.2° (Epoch: 06 August)

Event Time Altitude Azimuth Distance (km) Brightness Sun altitude
Rises 01:55:51 0° 344° (NNW) 3,550 7.7 -14.5°
Reaches altitude 10° 01:58:23 10° 340° (NNW) 2,604 6.8 -14.3°
Maximum altitude 02:04:09 54° 265° (W) 1,089 4.1 -13.8°
Enters shadow 02:08:32 17° 194° (SSW) 2,095 5.2 -13.4°
